Starlink 31621

operational
NORAD ID: 59465 Int'l Des: 2024-068 Owner: SPXS Country: US Constellation: starlink
LEOCIRCULAR

About Starlink 31621

Description loading...

Live Position

Loading 3D Globe...

Upcoming Passes

Altitude History

Altitude vs Time

uPlot chart will show altitude changes over time

Two-Line Element Set

1 59465U 24068L 25350.72868523 .00002045 00000-0 83833-4 0 9995
2 59465 43.0008 143.1577 0001676 274.1579 85.9081 15.27579463 95834
Epoch: Dec 16, 2025 • Age: 21 hours

Current Status

Altitude 485.8 km
Velocity 7.63 km/s
Sub-Earth Point 37.04°N, 106.94°W
Launch Date Apr 10, 2024
Age 1.6 years
Type internet

Technical Details

Classification Payload
Mass 730.00 kg
Dry Mass 700.00 kg
Total Mass 730.00 kg
Length 0.30 m
Diameter 4.10 m
Span 29.00 m
Shape Box + pan
Manufacturer SPXS
Bus Type Starlink V2M
Phase Status In Orbit
Owner/State SPXS/US

Large Constellations

Loading constellations...